TimeMDT,TemperatureF,Dew PointF,Humidity,Sea Level PressureIn,VisibilityMPH,Wind Direction,Wind SpeedMPH,Gust SpeedMPH,PrecipitationIn,Events,Conditions,WindDirDegrees,DateUTC
12:55 AM,54.0,50.0,86,29.64,10.0,NW,3.5,-,N/A,,Overcast,320,2013-09-18 06:55:00
1:55 AM,54.0,48.0,80,29.64,10.0,Calm,Calm,-,0.00,,Overcast,0,2013-09-18 07:55:00
2:17 AM,51.8,48.2,88,29.67,10.0,North,5.8,-,N/A,,Overcast,350,2013-09-18 08:17:00
2:55 AM,53.1,50.0,89,29.64,10.0,North,4.6,-,N/A,,Overcast,350,2013-09-18 08:55:00
3:52 AM,51.8,50.0,94,29.68,5.0,WSW,4.6,-,0.04,Rain,Light Rain,250,2013-09-18 09:52:00
3:55 AM,52.0,50.0,93,29.65,5.0,WSW,5.8,-,0.04,Rain,Light Rain,250,2013-09-18 09:55:00
4:22 AM,53.6,51.8,94,29.68,10.0,South,3.5,-,0.03,Rain,Light Rain,190,2013-09-18 10:22:00
4:55 AM,52.0,48.9,89,29.67,10.0,South,6.9,-,0.04,Rain,Rain,180,2013-09-18 10:55:00
5:55 AM,51.1,50.0,96,29.69,7.0,South,6.9,-,0.13,Rain,Rain,170,2013-09-18 11:55:00
6:05 AM,51.8,50.0,94,29.72,7.0,South,8.1,-,0.02,Rain,Rain,170,2013-09-18 12:05:00
6:55 AM,51.1,48.9,92,29.71,7.0,South,8.1,-,0.11,Rain,Rain,170,2013-09-18 12:55:00
7:55 AM,51.1,50.0,96,29.76,5.0,SSE,9.2,-,0.16,Rain,Rain,160,2013-09-18 13:55:00
8:55 AM,51.1,50.0,96,29.78,4.0,SSE,6.9,-,0.15,Rain,Rain,160,2013-09-18 14:55:00
9:55 AM,51.1,48.9,92,29.80,6.0,South,5.8,-,0.10,Rain,Light Rain,190,2013-09-18 15:55:00
10:55 AM,48.0,44.1,86,29.83,10.0,NNE,8.1,-,0.07,Rain,Light Rain,30,2013-09-18 16:55:00
11:11 AM,48.2,44.6,87,29.83,9.0,NNE,9.2,-,0.01,Rain,Light Rain,30,2013-09-18 17:11:00
11:20 AM,48.2,44.6,87,29.84,10.0,NNE,10.4,-,0.01,Rain,Light Rain,30,2013-09-18 17:20:00
11:55 AM,48.0,44.1,86,29.85,8.0,NNE,9.2,-,0.03,Rain,Light Rain,30,2013-09-18 17:55:00
12:51 PM,48.2,44.6,87,29.86,7.0,NE,8.1,-,0.03,Rain,Light Rain,40,2013-09-18 18:51:00
12:55 PM,48.0,45.0,89,29.88,6.0,NE,8.1,-,0.03,Rain,Light Rain,40,2013-09-18 18:55:00
1:34 PM,48.2,46.4,93,29.88,10.0,NE,4.6,-,0.02,Rain,Light Rain,50,2013-09-18 19:34:00
1:55 PM,48.9,45.0,86,29.89,10.0,North,4.6,-,0.03,Rain,Light Rain,350,2013-09-18 19:55:00
2:55 PM,50.0,45.0,83,29.91,10.0,NNE,8.1,-,0.01,Rain,Light Rain,30,2013-09-18 20:55:00
3:55 PM,48.9,45.0,86,29.95,8.0,NNE,8.1,-,0.03,Rain,Light Rain,30,2013-09-18 21:55:00
4:55 PM,48.9,44.1,83,29.97,10.0,NNE,4.6,-,0.02,Rain,Light Rain,20,2013-09-18 22:55:00
5:55 PM,48.9,45.0,86,30.00,10.0,Calm,Calm,-,0.01,Rain,Light Rain,0,2013-09-18 23:55:00
6:55 PM,48.9,44.1,83,30.01,10.0,Calm,Calm,-,0.01,Rain,Light Rain,0,2013-09-19 00:55:00
7:55 PM,48.0,45.0,89,30.04,10.0,Calm,Calm,-,0.00,Rain,Light Rain,0,2013-09-19 01:55:00
8:55 PM,48.0,46.0,93,30.07,10.0,Calm,Calm,-,0.00,Rain,Light Rain,0,2013-09-19 02:55:00
9:48 PM,48.2,46.4,93,30.07,10.0,Calm,Calm,-,0.00,,Overcast,0,2013-09-19 03:48:00
9:55 PM,48.0,46.0,93,30.09,10.0,Calm,Calm,-,0.00,,Overcast,0,2013-09-19 03:55:00
10:36 PM,48.2,46.4,93,30.08,10.0,Calm,Calm,-,0.00,Rain,Light Rain,0,2013-09-19 04:36:00
10:55 PM,48.0,46.0,93,30.11,10.0,Calm,Calm,-,0.00,,Overcast,0,2013-09-19 04:55:00
11:55 PM,48.0,46.0,93,30.13,10.0,Calm,Calm,-,0.00,Rain,Light Rain,0,2013-09-19 05:55:00